Location: Cornospital
(48.0620°N, 3.3837°W)
Time: 20:27:39
(UTC+00:00)

Cosmos 2219 Rocket - Pass Details

Date: 17 June 2021
Orbit: 829 x 845 km, 71.0° (Epoch: 03 August)

Event Time Altitude Azimuth Distance (km) Brightness Sun altitude
Exits shadow 21:07:33 - 144° (SE) 2,595 4.1 -7.2°
Reaches altitude 10° 21:08:04 10° 140° (SE) 2,463 3.9 -7.2°
Maximum altitude 21:11:46 18° 99° (E) 1,954 3.7 -7.6°
Drops below altitude 10° 21:15:29 10° 58° (ENE) 2,473 4.6 -8.0°
Sets 21:18:39 0° 40° (NE) 3,412 5.5 -8.4°
